Погода в Мехабаде

Иран     36°45′48″N   45°43′28″E
темп.,
°C
ветер,
м/с
пор.,
м/с
влажн.,
%
обл.,
%
осадки,
мм/ч
давл.,
гПа
погр.,
м
17 апреля, сб
сб1701:30+9ююз225526 0.0 101916
04:30+7ссв015952 0.0 101810
07:30+9ююз1156100 0.0 102010
10:30+16всв112969 0.0 1019868
13:30+19с212534 0.0 10182037
16:30+20ссв32254 0.0 10152406
19:30+16ссв33411 0.0 101648
22:30+12ююз11490 0.0 101810
18 апреля, вс
вс1801:30+12ююз22490 0.0 101811
04:30+11ююз225124 0.0 101811
07:30+11ю225373 0.0 101814
10:30+18зюз1234100 0.0 1018778
13:30+22юз2324100 0.0 10152247
16:30+22ссз2325100 0.0 10142374
19:30+18ссз114434 0.0 101513
22:30+14ююз44525 0.0 101748
19 апреля, пн
пн1901:30+12ююз3353100 0.0 101723
04:30+12ююз2254100 0.0 101712
07:30+12ю1155100 0.0 101711
10:30+18с35386 0.0 1018976
13:30+21с4532100 0.0 10171431
16:30+21с233172 0.0 10151261
19:30+19всв224397 0.0 101513
22:30+16юз1147100 0.0 101611
20 апреля, вт
вт2001:30+15юз1145100 0.0 101611
04:30+14юв114294 0.0 101511
07:30+14ю3344100 0.0 101724
10:30+22ю343035 0.0 1015691
13:30+26зюз5620100 0.0 10133706
16:30+25зсз772152 0.0 10122864
19:30+20юз1142100 0.0 101212
22:30+16зюз1145100 0.0 101511
21 апреля, ср
ср2101:30+17ююз4438100 0.0 101542
04:30+16ююз443998 0.0 101442
07:30+16ю3340100 0.0 101527
10:30+23ююз34265 0.0 10141005
13:30+26юз892299 0.0 10133720
16:30+25юз9102421 0.0 10123268
19:30+21ююз473762 0.0 1013135
22:30+17ююз553996 0.0 101560